Regional Weather Roundup
Issued by NWS Wakefield, VA

Home | Current Version | Previous Version | Graphics & Text | Print | Product List | Glossary On
Versions: 1 2 3 4 5 6 7 8 9 10 11 12 13 14 15 16 17 18 19 20 21 22 23 24 25 26 27 28 29 30 31 32 33 34 35 36 37 38 39 40 41 42 43 44 45 46 47 48 49 50
000
ASUS41 KAKQ 090615
RWRAKQ

REGIONAL WEATHER ROUNDUP
NATIONAL WEATHER SERVICE WAKEFIELD VA
100 AM EST FRI DEC 09 2016

Note: "fair" indicates few or no clouds below 12,000 feet with no
significant weather and/or obstructions to visibility. * = Denotes
station may not report precipitation (e.g., rain,snow,etc.),
thunder or fog.

VAZ042-051-052>054-056-090700-
NORTHERN VIRGINIA

CITY           SKY/WX    TMP DP  RH WIND       PRES   REMARKS
WASH NATIONAL  PTCLDY    33  14  45 NW12G23   30.22R WCI  24
DULLES         PTCLDY    31  11  43 NW23G31   30.21R WCI  18
FORT BELVOIR   CLEAR     33  12  43 NW16      30.21R WCI  22
QUANTICO       CLEAR     32  17  54 N9        30.24R
FREDERICKSBRG* PTCLDY    31  20  64 N5        30.21R
STAFFORD*      CLEAR     28  18  65 NE6       30.26R
WARRENTON      CLEAR     31  13  48 CALM      30.21R
CULPEPER*      CLEAR     32  15  48 CALM      30.22S
MANASSAS*      NOT AVBL
LEESBURG*      MOCLDY    32  19  59 W9G18     30.22S
WINCHESTER     CLOUDY    28  14  54 NW15      30.22R WCI  17
FRONT ROYAL*   CLOUDY    30  14  51 NW9G22    30.22R
LURAY*         CLOUDY    32  19  59 W5        30.21R
$$

VAZ048-049-060>072-079>083-090700-
CENTRAL AND SOUTH CENTRAL VIRGINIA

CITY           SKY/WX    TMP DP  RH WIND       PRES   REMARKS
RICHMOND       MOCLDY    36  13  38 NW12      30.20S
CHESTERFIELD*  FAIR      34   7  32 NW10      30.22R
PETERSBURG*    CLEAR     35  15  44 NW7       30.21S
HANOVER        PTCLDY    35  14  42 NW10      30.22R
TAPPAHANNOCK*  PTCLDY    34  14  43 NW3       30.21R
QUINTON*       FAIR      36  14  40 NW8       30.20R
CHARLOTTSVILLE PTCLDY    34  13  41 VRB3      30.21R
GORDONSVILLE*  FAIR      33  14  46 CALM      30.20S
ORANGE*          N/A     32  18  55 CALM      30.23R
LOUISA*        CLEAR     36  18  48 W7        30.19R
BUMPASS*       FAIR      33  14  46 NW3       30.20S
FARMVILLE*     MOCLDY    35  16  46 CALM      30.23R
CREWE*         FAIR      35  15  44 NW10G17   30.21S
FORT PICKETT*  FAIR      35   7  31 NW8       30.21R
CHASE CITY*    FAIR      35  11  38 NW7G16    30.23R
CLARKSVILLE*   FAIR      34  18  51 NW7       30.22F
SOUTH HILL*    PTCLDY    36  17  45 NW6       30.27S
LAWRENCEVILLE* FAIR      34  16  47 NW3       30.20S
EMPORIA*       PTCLDY    36  18  48 W7        30.22R
$$

VAZ088>098-090700-
SOUTHEAST VIRGINIA

CITY           SKY/WX    TMP DP  RH WIND       PRES   REMARKS
NORFOLK        CLEAR     41  20  43 N14G20    30.17R
VIRGINIA BEACH PTCLDY    38  22  52 NW17G24   30.16R
NORFOLK NAVAL  CLEAR     40  19  43 N16G24    30.19R
WEST POINT*    PTCLDY    35  17  47 NW5       30.22R
SALUDA*        FAIR      36  20  52 NW10G20   30.19R
NEWPORT NEWS   CLEAR     37  19  48 N13       30.18R
LANGLEY AFB    CLEAR     38  19  46 NW12      30.16R
FORT EUSTIS    CLEAR     39  17  40 N10       30.16R
WILLIAMSBURG*  CLEAR     37  21  52 N8        30.20R
HR EXEC AP*    FAIR      28  21  74 CALM      30.17R
FRANKLIN*      PTCLDY    37  17  43 NW9       30.19S
US460-WAKEFLD  CLEAR     35  21  56 NW5       30.19S
$$

VAZ020-022-025-037-045-090700-
WEST CENTRAL AND SOUTHWEST VIRGINIA

CITY           SKY/WX    TMP DP  RH WIND       PRES   REMARKS
STAUNTON*      CLOUDY    28  13  52 NW7       30.23R
WAYNESBORO*    CLOUDY    29  11  46 W7        30.19R
HOT SPRINGS VA CLOUDY    18   9  68 W18G29    30.05F WCI   2
LYNCHBURG      PTCLDY    30  13  49 VRB3      30.24R
DANVILLE       PTCLDY    34  15  46 NW10      30.26S
SOUTH BOSTON*  FAIR      34  13  42 NW12      30.25S
MARTINSVILLE   PTCLDY    32  12  44 NW9       30.28F
ROANOKE        CLOUDY    31  13  47 W12       30.28R WCI  22
BLACKSBURG     CLOUDY    28  14  57 W6        30.25S
DUBLIN*        CLOUDY    28  15  57 NW12      30.24S WCI  18
MARION*        CLOUDY    26  14  60 SW7       30.25S
HILLSVILLE*    CLOUDY    24  13  64 NW13G21   30.18F WCI  12
RICHLANDS*     CLOUDY    23  14  67 NW8       30.24F
WISE*          CLOUDY    25  14  63 NW10G16   30.28F WCI  15
ABINGDON*      CLOUDY    27  13  57 NW6       30.30S
$$

MDZ021>025-VAZ099-100-090700-
SOUTHERN MARYLAND AND THE DELMARVA PENINSULA

CITY           SKY/WX    TMP DP  RH WIND       PRES   REMARKS
PATUXENT RIVER PTCLDY    34  18  52 N18       30.19R WCI  23
BAY BRIDGE APT CLEAR     32  18  55 MISG      30.18S
LEONARDTOWN    CLEAR     32  16  51 W6        30.21S
DOVER          CLEAR     32  17  55 W16       30.13S WCI  21
GEORGETOWN     PTCLDY    33  15  47 NW9G17    30.15S
EASTON         CLEAR     34  16  47 NW17      30.21R WCI  23
CAMBRIDGE      PTCLDY    32  18  55 NW13G25   30.17S WCI  22
SALISBURY      CLEAR     32  18  56 NW9G17    30.16R
OCEAN CITY     CLEAR     33  18  53 NW13      30.15R WCI  24
WALLOPS ISLAND CLEAR     34  19  54 NW17      30.16R WCI  23
ACCOMACK*      CLEAR     37  23  55 NW14G26   30.16R
$$

NCZ012>017-030>032-090700-
NORTH CENTRAL AND EASTERN NORTH CAROLINA

CITY           SKY/WX    TMP DP  RH WIND       PRES   REMARKS
ROANOKE RAPIDS NOT AVBL
RALEIGH        PTCLDY    38  11  32 VRB6      30.24S
ELIZABETH CITY CLEAR     36  24  62 W10       30.18R
AHOSKIE*       PTCLDY    34  20  55 CALM      30.20R
EDENTON*       CLEAR     41  26  55 NW7       30.19R
CURRITUCK*     CLEAR     38  26  61 NW5       30.17R
KILL DEVIL HLS CLEAR     43  28  56 NW8G16    30.13S
MANTEO         CLEAR     44  25  47 N12G21    30.15S
CAPE HATTERAS  PTCLDY    46  28  49 NW10G22   30.15S
TARBORO*       NOT AVBL
GOLDSBORO      PTCLDY    40  19  43 NW6       30.21R
WASHINGTON     CLEAR     37  24  60 NW3       30.21R
GREENVILLE     CLEAR     37  21  52 CALM      30.22R
NEW BERN       CLEAR     41  24  51 NW8       30.21R
WILMINGTON     PTCLDY    40  29  64 NW7       30.22R
$$

VAZ048-090700-
ELSEWHERE

CITY           SKY/WX    TMP DP  RH WIND       PRES   REMARKS
HARRISBURG PA  CLOUDY    31  16  54 W9        30.14S
BALTIMORE      PTCLDY    31  16  54 W15G25    30.17S WCI  20
ANNAPOLIS      CLEAR     34  17  50 W10G17    30.18S
ANDREWS AFB    CLEAR     32  13  46 NW16G26   30.19R WCI  21
PHILADELPHIA   PTCLDY    31  15  52 W16       30.12S WCI  20
HENDERSON NC   CLEAR     33  13  43 NW5       30.22S
GREENSBORO     PTCLDY    31  14  49 NW7       30.25R
ROCKY MOUNT    CLEAR     37  19  48 NW7       30.22R
$$

VAZ100-090700-
MARINE

STATION/POSITION TIME  TEMP    WIND        PRES    WAVE   SWELL
                       AIR SEA DIR/SP/G            HT/PER HT/PER
                 (UTC) (F)     (DEG/KT/KT) (MB)    (FT/S) (FT/S)
BRANDYWINE LGT   0536          320/ 21/ 26   N/A
CAPE MAY NJ      0536          300/ 17/ 25 1019.7R
LEWES DE         0536          300/ 22/ 25 1020.4R
OCEAN-CITY-INLET 0536          330/ 12/ 16 1021.1R
WACHAPREAGUE VA  0536          310/  6/ 17 1021.0R
THOMAS POINT MD  0600   34 46  290/ 20/ 23   N/A
GOOSES REEF MD   0600   36 49  310/ 17/ 23 1023.3    2/ 3
COVE POINT MD    0536          340/ 24/ 29 1022.6S
SOLOMONS ISLAND  0536          330/ 13/ 17   N/A
BISHOPS HEAD MD  0536          320/ 19/ 23 1022.4R
PINEY POINT MD   0536           10/ 17/ 21   N/A
POTOMAC MD       0600   36 50  340/ 16/ 19 1021.7    2/ 3
CAMBRIDGE MD     0536          310/ 19/ 27 1021.1R
LEWISETTA VA     0536          340/ 13/ 20 1022.2R
RAPPAHANNOCK LGT 0536          320/ 27/ 32 1021.6R
STINGRAY PT      0600   38     340/ 17/ 19 1022.5    2/ 3
YORK RVR RNG VA  0536          340/ 19/ 22 1020.9R
YORKTOWN VA      0536          330/ 20/ 25 1021.3R
JAMESTOWN VA     0600   38 51  330/ 10/ 14   N/A
DOMINION TERM VA 0536          350/ 13/ 18 1021.6R
KIPTOPEKE VA     0536          350/ 21/ 26   N/A
CHES BAY BRIDGE  0536          330/ 24/ 28 1021.3R
CAPE HENRY VA    0536          340/ 22/ 25   N/A
WILLOUBY STN VA  0536          340/  8/ 12 1022.3R
S CRANEY ISL VA  0536          340/ 14/ 19 1021.2R
CAPE HENRY BUOY  0542      54                N/A     4/ 4
CAPE CHARLES BUO 0556      53                N/A     3/ 3
OFFSHORE WE BUOY 0551      55                N/A     4/ 5
64NM E OF VA BCH 0550   48 59  340/ 19/ 23 1018.9R   5/ 6   2/ 9
DUCK PIER NC     0536          310/ 17/ 23 1020.2R
44100 DUCK FRF   0535      56                N/A     4/ 4   2/11
OREGON INLET NC  0536          310/ 15/ 19 1020.4F
HATTERAS NC      0536          310/ 19/ 23 1020.3F
DIAMOND SHLS NC  0550   51 76  340/ 21/ 25 1020.2R   5/ 5   2/10
CAPE LOOKOUT NC  0500   48     320/ 15/ 18 1021.1F
$$



USA.gov is the U.S. government's official web portal to all federal, state and local government web resources and services.